Location: Miles
(41.4492°N, 81.6087°W)
Time: 09:37:05
(UTC+00:00)

Courier 1B - Pass Details

Date: 17 September 2024
Orbit: 962 x 1208 km, 28.3° (Epoch: 04 October)

Event Time Altitude Azimuth Distance (km) Brightness Sun altitude
Rises 20:24:36 0° 247° (WSW) 3,868 11.7 32.8°
Reaches altitude 10° 20:27:39 10° 236° (WSW) 2,952 11.6 32.3°
Maximum altitude 20:33:46 29° 179° (S) 1,938 9.7 31.3°
Drops below altitude 10° 20:40:10 10° 123° (ESE) 3,091 9.9 30.2°
Sets 20:43:26 0° 113° (ESE) 4,078 10.4 29.7°
